Weather History for Newark, NJ

Change the Weather History Date:

Saturday, June 9, 2012

  Actual Average Record
Temperature  
Mean Temperature 73 °F 70 °F  
Max Temperature 82 °F 80 °F 102 °F (2011)
Min Temperature 64 °F 61 °F 47 °F (1957)
Degree Days  
Heating Degree Days 0 1  
Month to date heating degree days 14 11  
Since 1 June heating degree days 14 11  
Since 1 July heating degree days 3707 4866  
Cooling Degree Days 8 6  
Month to date cooling degree days 29 48  
Year to date cooling degree days 162 124  
Since 1 June cooling degree days 29 48  
Growing Degree Days 23 (Base 50)    
Moisture  
Dew Point 55 °F    
Average Humidity 54    
Maximum Humidity 67    
Minimum Humidity 40    
Precipitation  
Precipitation T in 0.14 in 2.11 in (1977)
Month to date precipitation 1.79 1.29  
Year to date precipitation 14.83 20.18  
Snow  
Snow 0.00 in 0.00 in T in (1952)
Month to date snowfall 0.0 0.0  
Since 1 July snowfall 8.8 28.5  
Snow Depth 0.00 in    
Sea Level Pressure  
Sea Level Pressure 29.91 in    
Wind  
Wind Speed 6 mph (WSW)    
Max Wind Speed 17 mph    
Max Gust Speed 23 mph    
Visibility 10 miles    
Events      
T = Trace of Precipitation, MM = Missing Value Source: NWS Daily Summary

Daily Weather History Graph

Daily Weather History Graph

Search for Another Location

Airport:

Trip Planner

Search our weather history database for the weather conditions in past years. The results will help you decide how hot, cold, wet, or windy it might be!

Date:

Astronomy

Jun. 09, 2012 Rise Set
Actual Time 5:25 AM EDT 8:26 PM EDT
Civil Twilight 4:52 AM EDT 9:00 PM EDT
Nautical Twilight 4:10 AM EDT 9:42 PM EDT
Astronomical Twilight 3:20 AM EDT 10:31 PM EDT
Moon No Moon Rise 11:09 AM EDT (6/9)
Length of Visible Light 16h 07m
Length of Day
15h 01m
Waning Gibbous, 68% of the Moon is Illuminated
Jun 9
Waning Gibbous
Jun 11
Last Quarter
Jun 19
New
Jun 26
First Quarter
Jul 3
Full

Hourly Weather History & Observations

Time (EDT) Temp. Heat Index Dew Point Humidity Pressure Visibility Wind Dir Wind Speed Gust Speed Precip Events Conditions
12:51 AM 72.0 °F - 52.0 °F 49% 29.86 in 10.0 mi WSW 6.9 mph - N/A   Mostly Cloudy
1:51 AM 68.0 °F - 52.0 °F 56% 29.87 in 10.0 mi WSW 3.5 mph - N/A   Mostly Cloudy
2:51 AM 66.0 °F - 53.1 °F 63% 29.87 in 10.0 mi SSW 5.8 mph - N/A   Mostly Cloudy
3:51 AM 66.0 °F - 53.1 °F 63% 29.86 in 10.0 mi South 5.8 mph - N/A   Mostly Cloudy
4:51 AM 64.9 °F - 53.1 °F 65% 29.88 in 10.0 mi SSW 4.6 mph - N/A   Mostly Cloudy
5:51 AM 66.0 °F - 53.1 °F 63% 29.89 in 10.0 mi South 4.6 mph - N/A   Mostly Cloudy
6:51 AM 68.0 °F - 54.0 °F 61% 29.90 in 10.0 mi South 3.5 mph - N/A   Mostly Cloudy
7:51 AM 70.0 °F - 54.0 °F 57% 29.92 in 10.0 mi SSW 4.6 mph - N/A   Mostly Cloudy
8:51 AM 70.0 °F - 54.0 °F 57% 29.92 in 10.0 mi SW 5.8 mph - N/A   Overcast
9:51 AM 70.0 °F - 52.0 °F 53% 29.94 in 10.0 mi SW 4.6 mph - N/A   Overcast
10:51 AM 71.1 °F - 52.0 °F 51% 29.94 in 10.0 mi WSW 4.6 mph - N/A   Overcast
11:51 AM 75.9 °F - 53.1 °F 45% 29.93 in 10.0 mi Variable 3.5 mph - N/A   Overcast
12:51 PM 78.1 °F - 55.0 °F 45% 29.92 in 10.0 mi Variable 4.6 mph - N/A   Overcast
1:51 PM 75.9 °F - 54.0 °F 46% 29.92 in 10.0 mi NNW 3.5 mph - N/A   Overcast
2:51 PM 79.0 °F - 53.1 °F 40% 29.90 in 10.0 mi West 11.5 mph - N/A   Overcast
3:51 PM 82.0 °F 81.6 °F 55.9 °F 41% 29.89 in 10.0 mi West 11.5 mph 17.3 mph N/A   Mostly Cloudy
4:51 PM 81.0 °F 80.8 °F 55.9 °F 42% 29.89 in 10.0 mi WNW 13.8 mph - N/A   Mostly Cloudy
5:51 PM 80.1 °F 80.4 °F 57.0 °F 45% 29.90 in 10.0 mi WNW 12.7 mph - 0.00 in   Overcast
6:51 PM 80.1 °F 80.6 °F 57.9 °F 47% 29.90 in 10.0 mi WNW 5.8 mph - N/A   Mostly Cloudy
7:51 PM 78.1 °F - 57.0 °F 48% 29.90 in 10.0 mi WNW 12.7 mph - N/A   Mostly Cloudy
8:51 PM 75.2 °F - 57.2 °F 53% 29.92 in 10.0 mi WNW 6.9 mph - N/A   Mostly Cloudy
9:51 PM 75.0 °F - 57.9 °F 55% 29.95 in 10.0 mi West 5.8 mph - N/A   Scattered Clouds
10:51 PM 73.9 °F - 57.9 °F 57% 29.97 in 10.0 mi WNW 6.9 mph - N/A   Mostly Cloudy
11:51 PM 75.0 °F - 57.9 °F 55% 29.98 in 10.0 mi Calm Calm - N/A   Overcast